TimeEDT,TemperatureF,Dew PointF,Humidity,Sea Level PressureIn,VisibilityMPH,Wind Direction,Wind SpeedMPH,Gust SpeedMPH,PrecipitationIn,Events,Conditions,WindDirDegrees,DateUTC
12:15 AM,68.0,64.4,88,29.95,10.0,Calm,Calm,-,N/A,,Mostly Cloudy,0,2013-07-13 04:15:00
12:35 AM,68.0,64.4,88,29.95,10.0,Calm,Calm,-,N/A,,Scattered Clouds,0,2013-07-13 04:35:00
12:55 AM,68.0,64.4,88,29.97,10.0,Calm,Calm,-,N/A,,Mostly Cloudy,0,2013-07-13 04:55:00
1:15 AM,68.0,64.4,88,29.96,10.0,Calm,Calm,-,N/A,,Overcast,0,2013-07-13 05:15:00
1:35 AM,68.0,66.2,94,29.96,10.0,Calm,Calm,-,N/A,,Overcast,0,2013-07-13 05:35:00
1:55 AM,68.0,66.2,94,29.95,10.0,Calm,Calm,-,N/A,Rain,Light Rain,0,2013-07-13 05:55:00
2:15 AM,68.0,66.2,94,29.94,10.0,Calm,Calm,-,N/A,,Mostly Cloudy,0,2013-07-13 06:15:00
2:35 AM,68.0,66.2,94,29.94,7.0,Calm,Calm,-,N/A,,Scattered Clouds,0,2013-07-13 06:35:00
2:55 AM,68.0,66.2,94,29.93,7.0,Calm,Calm,-,N/A,,Scattered Clouds,0,2013-07-13 06:55:00
3:15 AM,68.0,66.2,94,29.93,7.0,Calm,Calm,-,N/A,,Mostly Cloudy,0,2013-07-13 07:15:00
3:35 AM,68.0,66.2,94,29.93,5.0,Calm,Calm,-,N/A,,Overcast,0,2013-07-13 07:35:00
3:55 AM,68.0,66.2,94,29.93,7.0,Calm,Calm,-,N/A,,Overcast,0,2013-07-13 07:55:00
4:15 AM,68.0,66.2,94,29.93,7.0,Calm,Calm,-,N/A,,Overcast,0,2013-07-13 08:15:00
4:35 AM,68.0,66.2,94,29.93,7.0,Calm,Calm,-,N/A,,Overcast,0,2013-07-13 08:35:00
4:55 AM,68.0,66.2,94,29.94,10.0,Calm,Calm,-,N/A,,Mostly Cloudy,0,2013-07-13 08:55:00
5:15 AM,68.0,66.2,94,29.95,7.0,Calm,Calm,-,N/A,,Overcast,0,2013-07-13 09:15:00
5:35 AM,68.0,66.2,94,29.95,10.0,North,3.5,-,N/A,,Overcast,10,2013-07-13 09:35:00
5:55 AM,68.0,66.2,94,29.95,10.0,NNE,3.5,-,N/A,,Overcast,30,2013-07-13 09:55:00
6:15 AM,68.0,66.2,94,29.96,10.0,NNE,3.5,-,N/A,,Overcast,30,2013-07-13 10:15:00
6:35 AM,68.0,66.2,94,29.96,10.0,Calm,Calm,-,N/A,,Overcast,0,2013-07-13 10:35:00
6:55 AM,68.0,66.2,94,29.97,10.0,ENE,3.5,-,N/A,Thunderstorm,Overcast,70,2013-07-13 10:55:00
7:15 AM,68.0,66.2,94,29.98,7.0,Calm,Calm,-,N/A,,Overcast,0,2013-07-13 11:15:00
7:35 AM,68.0,66.2,94,29.98,7.0,Calm,Calm,-,N/A,,Overcast,0,2013-07-13 11:35:00
7:55 AM,68.0,66.2,94,29.99,7.0,Calm,Calm,-,N/A,,Overcast,0,2013-07-13 11:55:00
8:15 AM,68.0,66.2,94,29.99,7.0,Calm,Calm,-,N/A,,Overcast,0,2013-07-13 12:15:00
8:35 AM,68.0,66.2,94,30.00,10.0,Calm,Calm,-,N/A,,Overcast,0,2013-07-13 12:35:00
8:55 AM,68.0,68.0,100,30.01,10.0,Calm,Calm,-,N/A,,Overcast,0,2013-07-13 12:55:00
9:15 AM,68.0,68.0,100,30.01,10.0,Calm,Calm,-,N/A,,Overcast,0,2013-07-13 13:15:00
9:35 AM,68.0,66.2,94,30.02,10.0,East,3.5,-,N/A,,Overcast,80,2013-07-13 13:35:00
9:55 AM,68.0,68.0,100,30.02,7.0,NE,3.5,-,N/A,Thunderstorm,Overcast,50,2013-07-13 13:55:00
10:15 AM,68.0,68.0,100,30.03,3.0,Calm,Calm,-,N/A,Rain,Light Rain,0,2013-07-13 14:15:00
10:35 AM,68.0,68.0,100,30.03,5.0,Calm,Calm,-,N/A,,Overcast,0,2013-07-13 14:35:00
10:55 AM,68.0,68.0,100,30.04,7.0,Calm,Calm,-,N/A,,Overcast,0,2013-07-13 14:55:00
11:15 AM,68.0,68.0,100,30.04,5.0,Calm,Calm,-,N/A,,Overcast,0,2013-07-13 15:15:00
11:35 AM,69.8,68.0,94,30.04,7.0,Calm,Calm,-,N/A,,Overcast,0,2013-07-13 15:35:00
11:55 AM,69.8,68.0,94,30.05,7.0,Calm,Calm,-,N/A,,Overcast,0,2013-07-13 15:55:00
12:15 PM,71.6,68.0,88,30.05,10.0,ENE,3.5,-,N/A,,Overcast,70,2013-07-13 16:15:00
12:35 PM,71.6,68.0,88,30.05,10.0,Calm,Calm,-,N/A,,Overcast,0,2013-07-13 16:35:00
12:55 PM,71.6,68.0,88,30.05,10.0,Calm,Calm,-,N/A,,Overcast,0,2013-07-13 16:55:00
1:15 PM,71.6,68.0,88,30.04,10.0,ENE,3.5,-,N/A,,Overcast,70,2013-07-13 17:15:00
1:35 PM,73.4,68.0,83,30.04,10.0,Calm,Calm,-,N/A,,Overcast,0,2013-07-13 17:35:00
1:55 PM,73.4,69.8,88,30.03,10.0,East,3.5,-,N/A,,Overcast,80,2013-07-13 17:55:00
2:15 PM,73.4,69.8,88,30.03,10.0,Calm,Calm,-,N/A,,Mostly Cloudy,0,2013-07-13 18:15:00
2:35 PM,71.6,68.0,88,30.03,10.0,Calm,Calm,-,N/A,,Scattered Clouds,0,2013-07-13 18:35:00
2:55 PM,71.6,68.0,88,30.03,10.0,Calm,Calm,-,N/A,,Scattered Clouds,0,2013-07-13 18:55:00
3:15 PM,73.4,69.8,88,30.02,10.0,ENE,3.5,-,N/A,,Mostly Cloudy,60,2013-07-13 19:15:00
3:35 PM,73.4,69.8,88,30.01,10.0,Calm,Calm,-,N/A,Rain,Light Rain,0,2013-07-13 19:35:00
3:55 PM,73.4,69.8,88,30.01,10.0,NE,4.6,-,N/A,Rain,Light Rain,50,2013-07-13 19:55:00
4:15 PM,73.4,69.8,88,30.01,10.0,Calm,Calm,-,N/A,Rain,Light Rain,0,2013-07-13 20:15:00
4:35 PM,73.4,69.8,88,30.00,10.0,Calm,Calm,-,N/A,Rain,Light Rain,0,2013-07-13 20:35:00
4:55 PM,73.4,69.8,88,30.00,7.0,Calm,Calm,-,N/A,,Light Drizzle,0,2013-07-13 20:55:00
5:15 PM,73.4,69.8,88,30.00,10.0,Calm,Calm,-,N/A,,Overcast,0,2013-07-13 21:15:00
5:35 PM,73.4,69.8,88,29.99,10.0,Calm,Calm,-,N/A,,Scattered Clouds,0,2013-07-13 21:35:00
5:55 PM,75.2,69.8,83,29.99,10.0,Calm,Calm,-,N/A,,Scattered Clouds,0,2013-07-13 21:55:00
6:15 PM,75.2,69.8,83,30.00,10.0,East,3.5,-,N/A,,Mostly Cloudy,80,2013-07-13 22:15:00
6:35 PM,75.2,69.8,83,30.00,10.0,NE,3.5,-,N/A,,Mostly Cloudy,40,2013-07-13 22:35:00
6:55 PM,73.4,69.8,88,30.01,10.0,Calm,Calm,-,N/A,Rain,Light Rain,0,2013-07-13 22:55:00
7:15 PM,73.4,69.8,88,30.02,10.0,East,3.5,-,N/A,Rain,Light Rain,80,2013-07-13 23:15:00
7:35 PM,71.6,69.8,94,30.02,7.0,Calm,Calm,-,N/A,Rain,Light Rain,0,2013-07-13 23:35:00
7:55 PM,71.6,69.8,94,30.01,7.0,Calm,Calm,-,N/A,,Scattered Clouds,0,2013-07-13 23:55:00
8:15 PM,71.6,69.8,94,30.02,7.0,Calm,Calm,-,N/A,,Scattered Clouds,0,2013-07-14 00:15:00
8:35 PM,71.6,69.8,94,30.03,7.0,Calm,Calm,-,N/A,,Scattered Clouds,0,2013-07-14 00:35:00
8:55 PM,71.6,69.8,94,30.03,5.0,Calm,Calm,-,N/A,,Clear,0,2013-07-14 00:55:00
9:15 PM,69.8,68.0,94,30.03,5.0,Calm,Calm,-,N/A,,Clear,0,2013-07-14 01:15:00
9:35 PM,69.8,68.0,94,30.03,4.0,Calm,Calm,-,N/A,,Clear,0,2013-07-14 01:35:00
9:55 PM,69.8,68.0,94,30.03,4.0,Calm,Calm,-,N/A,,Scattered Clouds,0,2013-07-14 01:55:00
10:15 PM,69.8,68.0,94,30.04,5.0,Calm,Calm,-,N/A,,Clear,0,2013-07-14 02:15:00
10:35 PM,69.8,68.0,94,30.04,7.0,Calm,Calm,-,N/A,,Scattered Clouds,0,2013-07-14 02:35:00
10:55 PM,69.8,68.0,94,30.05,5.0,Calm,Calm,-,N/A,,Mostly Cloudy,0,2013-07-14 02:55:00
11:15 PM,69.8,68.0,94,30.05,5.0,Calm,Calm,-,N/A,,Overcast,0,2013-07-14 03:15:00
11:35 PM,69.8,68.0,94,30.05,5.0,Calm,Calm,-,N/A,,Mostly Cloudy,0,2013-07-14 03:35:00
11:55 PM,69.8,68.0,94,30.05,5.0,Calm,Calm,-,N/A,,Mostly Cloudy,0,2013-07-14 03:55:00